TimeCST,TemperatureF,Dew PointF,Humidity,Sea Level PressureIn,VisibilityMPH,Wind Direction,Wind SpeedMPH,Gust SpeedMPH,PrecipitationIn,Events,Conditions,WindDirDegrees,DateUTC
12:15 AM,53.8,49.1,84,30.13,10.0,South,6.9,-,N/A,,Clear,190,2014-01-17 06:15:00
12:35 AM,54.9,50.0,84,30.13,10.0,SSW,8.1,-,N/A,,Clear,200,2014-01-17 06:35:00
12:55 AM,55.6,50.5,83,30.13,10.0,SSW,9.2,-,N/A,,Clear,210,2014-01-17 06:55:00
1:15 AM,55.8,50.9,84,30.13,10.0,SSW,6.9,-,N/A,,Clear,200,2014-01-17 07:15:00
1:35 AM,55.4,50.9,85,30.13,10.0,SSW,5.8,-,N/A,,Clear,210,2014-01-17 07:35:00
1:55 AM,55.8,51.3,85,30.13,10.0,SW,6.9,-,N/A,,Clear,220,2014-01-17 07:55:00
2:15 AM,55.2,51.3,87,30.14,10.0,SSW,6.9,-,N/A,,Clear,210,2014-01-17 08:15:00
2:35 AM,54.9,51.4,88,30.13,10.0,SW,5.8,-,N/A,,Clear,220,2014-01-17 08:35:00
2:55 AM,54.5,51.3,89,30.13,10.0,SSW,5.8,-,N/A,,Clear,210,2014-01-17 08:55:00
3:15 AM,54.1,51.3,90,30.13,10.0,SW,4.6,-,N/A,,Clear,220,2014-01-17 09:15:00
3:35 AM,54.0,51.4,91,30.13,10.0,SW,5.8,-,N/A,,Clear,220,2014-01-17 09:35:00
3:55 AM,54.0,51.3,91,30.13,10.0,Calm,Calm,-,N/A,,Clear,0,2014-01-17 09:55:00
4:15 AM,52.9,50.9,93,30.13,10.0,Calm,Calm,-,N/A,,Clear,0,2014-01-17 10:15:00
4:35 AM,52.7,51.1,94,30.13,10.0,Calm,Calm,-,N/A,,Clear,0,2014-01-17 10:35:00
4:55 AM,51.4,50.0,95,30.13,10.0,SW,3.5,-,N/A,,Clear,220,2014-01-17 10:55:00
5:15 AM,51.8,50.7,96,30.13,10.0,Calm,Calm,-,N/A,,Clear,0,2014-01-17 11:15:00
5:35 AM,50.2,49.3,97,30.14,10.0,Calm,Calm,-,N/A,,Clear,0,2014-01-17 11:35:00
5:55 AM,50.2,49.8,99,30.15,10.0,West,3.5,-,N/A,,Clear,260,2014-01-17 11:55:00
6:15 AM,50.4,50.0,99,30.16,10.0,West,5.8,-,N/A,,Clear,270,2014-01-17 12:15:00
6:35 AM,51.4,50.9,98,30.17,10.0,WNW,6.9,-,N/A,,Clear,290,2014-01-17 12:35:00
6:55 AM,52.0,49.1,90,30.17,10.0,WNW,6.9,-,N/A,,Clear,300,2014-01-17 12:55:00
7:15 AM,51.8,48.0,87,30.19,10.0,WNW,9.2,-,N/A,,Clear,300,2014-01-17 13:15:00
7:35 AM,52.7,46.2,79,30.19,10.0,NW,10.4,-,N/A,,Clear,310,2014-01-17 13:35:00
7:55 AM,53.4,45.0,73,30.21,10.0,NW,11.5,-,N/A,,Clear,310,2014-01-17 13:55:00
8:15 AM,53.6,43.7,69,30.21,10.0,NW,10.4,-,N/A,,Clear,310,2014-01-17 14:15:00
8:35 AM,53.8,43.2,67,30.21,10.0,NW,9.2,-,N/A,,Clear,310,2014-01-17 14:35:00
8:55 AM,53.8,42.3,65,30.22,10.0,NW,9.2,-,N/A,,Clear,310,2014-01-17 14:55:00
9:15 AM,54.5,41.9,62,30.24,10.0,NW,8.1,-,N/A,,Clear,310,2014-01-17 15:15:00
9:35 AM,56.5,40.5,55,30.24,10.0,NW,6.9,-,N/A,,Clear,310,2014-01-17 15:35:00
9:55 AM,56.8,39.4,52,30.25,10.0,West,4.6,-,N/A,,Clear,280,2014-01-17 15:55:00
10:15 AM,59.0,38.5,47,30.25,10.0,WNW,5.8,-,N/A,,Clear,290,2014-01-17 16:15:00
10:35 AM,60.1,34.9,39,30.25,10.0,NW,5.8,-,N/A,,Clear,320,2014-01-17 16:35:00
10:55 AM,61.7,31.3,32,30.24,10.0,NW,11.5,-,N/A,,Clear,320,2014-01-17 16:55:00
11:15 AM,63.5,30.7,29,30.23,10.0,NW,13.8,17.3,N/A,,Clear,310,2014-01-17 17:15:00
11:35 AM,64.4,29.5,27,30.22,10.0,NW,11.5,16.1,N/A,,Clear,310,2014-01-17 17:35:00
11:55 AM,64.6,29.5,27,30.21,10.0,NW,10.4,-,N/A,,Clear,310,2014-01-17 17:55:00
12:15 PM,64.6,28.2,25,30.19,10.0,NW,8.1,-,N/A,,Clear,320,2014-01-17 18:15:00
12:35 PM,64.2,27.3,25,30.18,10.0,NW,8.1,-,N/A,,Clear,320,2014-01-17 18:35:00
12:55 PM,65.7,27.7,24,30.17,10.0,WSW,10.4,-,N/A,,Clear,250,2014-01-17 18:55:00
1:15 PM,65.8,27.9,24,30.17,10.0,West,12.7,20.7,N/A,,Clear,280,2014-01-17 19:15:00
1:35 PM,65.8,27.5,24,30.16,10.0,WSW,9.2,-,N/A,,Clear,250,2014-01-17 19:35:00
1:55 PM,66.6,27.3,23,30.16,10.0,West,11.5,20.7,N/A,,Clear,270,2014-01-17 19:55:00
2:15 PM,66.2,27.1,23,30.16,10.0,West,13.8,20.7,N/A,,Clear,270,2014-01-17 20:15:00
2:35 PM,66.2,28.8,25,30.16,10.0,West,15.0,-,N/A,,Clear,280,2014-01-17 20:35:00
2:55 PM,65.8,26.8,23,30.16,10.0,West,10.4,17.3,N/A,,Clear,260,2014-01-17 20:55:00
3:15 PM,66.0,27.1,23,30.16,10.0,West,8.1,-,N/A,,Clear,260,2014-01-17 21:15:00
3:35 PM,65.1,27.0,24,30.17,10.0,WSW,8.1,-,N/A,,Clear,250,2014-01-17 21:35:00
3:55 PM,64.2,25.2,23,30.17,10.0,WSW,13.8,19.6,N/A,,Clear,240,2014-01-17 21:55:00
4:15 PM,63.0,27.1,26,30.17,10.0,WSW,11.5,16.1,N/A,,Clear,240,2014-01-17 22:15:00
4:35 PM,61.9,26.2,26,30.17,10.0,WSW,10.4,-,N/A,,Clear,250,2014-01-17 22:35:00
4:55 PM,60.4,26.4,27,30.18,10.0,WSW,10.4,-,N/A,,Clear,250,2014-01-17 22:55:00
5:15 PM,58.8,25.7,28,30.19,10.0,West,8.1,-,N/A,,Clear,260,2014-01-17 23:15:00
5:35 PM,55.6,29.5,37,30.19,10.0,West,6.9,-,N/A,,Clear,280,2014-01-17 23:35:00
5:55 PM,54.7,30.7,40,30.20,10.0,West,6.9,-,N/A,,Clear,270,2014-01-17 23:55:00
6:15 PM,53.1,32.4,45,30.21,10.0,NW,5.8,-,N/A,,Clear,310,2014-01-18 00:15:00
6:35 PM,53.6,27.3,36,30.22,10.0,NW,8.1,-,N/A,,Clear,310,2014-01-18 00:35:00
6:55 PM,52.9,25.2,34,30.23,10.0,WNW,9.2,-,N/A,,Clear,300,2014-01-18 00:55:00
7:15 PM,51.3,25.3,37,30.23,10.0,NW,8.1,-,N/A,,Clear,310,2014-01-18 01:15:00
7:35 PM,50.7,25.2,37,30.24,10.0,NW,8.1,-,N/A,,Clear,310,2014-01-18 01:35:00
7:55 PM,50.0,24.6,37,30.25,10.0,WNW,6.9,-,N/A,,Clear,300,2014-01-18 01:55:00
8:15 PM,48.6,25.5,41,30.25,10.0,WNW,4.6,-,N/A,,Clear,300,2014-01-18 02:15:00
8:35 PM,47.8,25.3,41,30.26,10.0,WNW,3.5,-,N/A,,Clear,290,2014-01-18 02:35:00
8:55 PM,48.6,23.4,37,30.26,10.0,WNW,4.6,-,N/A,,Clear,290,2014-01-18 02:55:00
9:15 PM,47.8,23.9,39,30.27,10.0,NW,6.9,-,N/A,,Clear,310,2014-01-18 03:15:00
9:35 PM,48.4,23.4,37,30.27,10.0,WNW,9.2,-,N/A,,Clear,300,2014-01-18 03:35:00
9:55 PM,47.5,23.9,40,30.27,10.0,WNW,6.9,-,N/A,,Clear,300,2014-01-18 03:55:00
10:15 PM,46.0,23.5,41,30.28,10.0,WNW,4.6,-,N/A,,Clear,290,2014-01-18 04:15:00
10:35 PM,45.5,24.8,44,30.27,10.0,WNW,4.6,-,N/A,,Clear,300,2014-01-18 04:35:00
10:55 PM,44.6,25.7,48,30.28,10.0,WNW,5.8,-,N/A,,Clear,300,2014-01-18 04:55:00
11:15 PM,43.5,25.7,50,30.28,10.0,WNW,5.8,-,N/A,,Clear,290,2014-01-18 05:15:00
11:35 PM,44.6,25.2,46,30.27,10.0,WNW,5.8,-,N/A,,Clear,300,2014-01-18 05:35:00
11:55 PM,44.1,24.4,46,30.27,10.0,WNW,4.6,-,N/A,,Clear,290,2014-01-18 05:55:00